Location: Cudham
(51.3000°N, 0.0667°E)
Time: 23:33:43
(UTC+00:00)

Cosmos 1354 Rocket - Pass Details

Date: 15 May 2026
Orbit: 761 x 778 km, 74.0° (Epoch: 11 June)

Event Time Altitude Azimuth Distance (km) Brightness Sun altitude
Rises 21:57:04 0° 334° (NNW) 3,249 9.2 -15.0°
Reaches altitude 10° 21:59:27 10° 333° (NNW) 2,315 7.9 -15.2°
Maximum altitude 22:04:42 80° 248° (WSW) 782 4.0 -15.5°
Enters shadow 22:07:47 25° 164° (SSE) 1,498 4.9 -15.8°
